Weather in Molodezhnyy

Russia / Irkutsk Oblast     52°13′57″N   104°25′03″E
temp.,
°C
wind,
m/s
gust,
m/s
humid.,
%
clouds,
%
prec.,
mm/h
press.,
hPa
HPBL,
m
14 may, fri
fri1423:00+2wnw23524 0.0 102054
02:000wnw11605 0.0 102113
05:00−1wsw11633 0.0 102110
08:00+4wnw23450 0.0 1021397
11:00+10wnw23340 0.0 10181356
14:00+14wnw12260 0.0 10161649
17:00+15e01220 0.0 10141681
20:00+10sse25420 0.0 1015111
15 may, sat
sat1523:00+5se22500 0.0 101635
02:00+3se22495 0.0 101634
05:00+2se225028 0.0 101622
08:00+7nw61272100 0.0 10201018
11:00+11nw594499 0.0 10201593
14:00+14nw3531100 0.0 10181872
17:00+15wnw1334100 0.0 10151490
20:00+11sse235398 0.0 101564
16 may, sun
sun1623:00+7sse1165100 0.0 101711
02:00+6sse2271100 0.0 101729
05:00+5sse237750 0.0 101642
08:00+12s3751100 0.0 1013278
11:00+18nw5834100 0.0 10121721
14:00+12wnw3979100 0.7 1014603
17:00+12nnw3875100 0.0 1014686
20:00+12sw118099 0.0 101312
17 may, mon
mon1723:00+10se118597 0.0 101122
02:00+8se2394100 0.0 100744
05:00+7sse2694100 0.0 1005124
08:00+10wnw2479100 0.0 1006256
11:00+14nw6116093 0.3 10081466
14:00+16nw474896 0.3 10071511
17:00+18wsw224498 0.0 10031468
20:00+14s2564100 0.0 1001156
18 may, tue
tue1823:00+11nnw2378100 0.0 100264
02:00+10nnw2892100 0.4 1004523
05:00+7nw6128793 4.4 10071001
08:00+5nw4108699 5.6 10111137
11:00+7wnw4568100 0.3 10121348
14:00+10w3553100 0.3 10101622
17:00+10nw225389 0.0 10081211
20:00+9nne116498 0.0 100718